Flag for Turkey Weather past 2 weeks in Gaziantep, Turkey

Now
52 °F

Sunny.


Feels Like: 52 °F
Forecast: 32 / 60 °F
Wind: 2 mph from North

Location: Gaziantep Airport

Current Time: Mar 6, 2015 at 11:01:40 AM

Latest Report: Mar 6, 2015 at 10:20 AM


Visibility: 10 mi

Pressure: 30.33 "Hg

Humidity: 32%

Dew point: 23 °F

Location of GaziantepLocation

Historic Weather in Gaziantep — Graph

°F

Gaziantep temperature yesterday

Maximum temperature yesterday: 55 °F (at 2:20 PM)
Minimum temperature yesterday: 32 °F (at 11:20 PM)
Average temperature yesterday: 43 °F

Past Weeks' High & Low Weather Summary

 TemperatureHumidityPressure
High59 °F (Feb 28, 12:20 PM)100% (Feb 19, 10:50 PM)30.36 "Hg (Feb 19, 10:50 PM)
Low21 °F (Feb 22, 5:50 AM)21% (Mar 5, 4:20 PM)29.53 "Hg (Feb 20, 4:20 AM)
Average44 °F74%30.03 "Hg
* Reported Feb 19 9:20 AM — Mar 6 9:50 AM, Gaziantep, Weather by CustomWeather, © 2015

Note: Actual official high and low records may vary slightly from our data, if they occured in-between our weather recording intervals... More about our weather records

Advertising

Gaziantep weather history for previous 24 hours

 ConditionsComfort  
Time TempWeatherWind HumidityBarometerVisibility
9:50 AM
Fri, Mar 6
52 °FSunny.No wind30%30.33 "Hg10 mi
9:20 AM52 °FSunny.No wind41%30.33 "Hg10 mi
8:50 AM48 °FSunny.No wind46%30.36 "Hg10 mi
8:20 AM46 °FSunny.No wind57%30.33 "Hg10 mi
7:50 AM39 °FSunny.No wind75%30.33 "Hg10 mi
7:20 AM36 °FSunny.No wind81%30.33 "Hg10 mi
6:50 AM32 °FSunny.2 mph87%30.30 "Hg10 mi
6:20 AM27 °FSunny.No wind93%30.30 "Hg10 mi
5:50 AM28 °FClear.No wind93%30.30 "Hg10 mi
5:20 AM30 °FClear.1 mph86%30.30 "Hg10 mi
4:50 AM30 °FClear.No wind86%30.30 "Hg10 mi
4:20 AM30 °FClear.No wind86%30.30 "Hg10 mi
3:50 AM28 °FClear.No wind93%30.30 "Hg10 mi
3:20 AM30 °FClear.No wind93%30.30 "Hg10 mi
2:50 AM28 °FClear.No wind93%30.30 "Hg10 mi
2:20 AM28 °FClear.1 mph93%30.27 "Hg10 mi
1:50 AM28 °FClear.No wind93%30.30 "Hg10 mi
1:20 AM30 °FClear.1 mph86%30.30 "Hg10 mi
12:50 AM32 °FClear.1 mph87%30.30 "Hg10 mi
12:20 AM34 °FClear.1 mph81%30.30 "Hg10 mi
11:50 PM
Thu, Mar 5
32 °FClear.1 mph80%30.27 "Hg10 mi
11:20 PM32 °FClear.5 mph80%30.30 "Hg10 mi
10:50 PM34 °FClear.3 mph81%30.30 "Hg10 mi
10:20 PM36 °FClear.2 mph75%30.30 "Hg10 mi
9:50 PM37 °FClear.1 mph70%30.30 "Hg10 mi
9:20 PM34 °FClear.1 mph81%30.27 "Hg10 mi
8:50 PM39 °FPassing clouds.5 mph65%30.27 "HgN/A
8:20 PM37 °FClear.2 mph70%30.27 "Hg10 mi
7:50 PM37 °FClear.No wind70%30.27 "Hg10 mi
7:20 PM41 °FClear.No wind61%30.27 "Hg10 mi
6:50 PM45 °FClear.1 mph49%30.24 "Hg10 mi
6:20 PM46 °FClear.6 mph43%30.24 "Hg10 mi
5:50 PM50 °FClear.2 mph30%30.21 "Hg10 mi
5:20 PM52 °FSunny.No wind28%30.21 "Hg10 mi
4:50 PM54 °FSunny.1 mph22%30.21 "Hg10 mi
4:20 PM55 °FPassing clouds.6 mph21%30.21 "HgN/A
3:50 PM55 °FSunny.2 mph24%30.21 "Hg10 mi
3:20 PM55 °FSunny.3 mph23%30.21 "Hg10 mi
2:50 PM54 °FPassing clouds.7 mph24%30.21 "HgN/A
2:20 PM55 °FPassing clouds.5 mph24%30.18 "HgN/A
1:50 PM54 °FPassing clouds.5 mph26%30.18 "HgN/A
1:20 PM54 °FPassing clouds.7 mph24%30.18 "HgN/A
12:50 PM52 °FPassing clouds.6 mph26%30.21 "HgN/A
12:20 PM52 °FPassing clouds.9 mph24%30.21 "HgN/A
11:50 AM52 °FSunny.5 mph26%30.21 "Hg10 mi
11:20 AM52 °FPassing clouds.8 mph24%30.21 "HgN/A
Weather by CustomWeather, © 2015

See weather overviewHow to use our weather pages